QPF
0.00 0.00 0.00 0.00 0.00 0.00 0.00 0.00 0.00 0.00 0.00 0.00 0.00 0.00 0.00 0.00 0.00 0.00 0.01 0.01 0.01 0.01 0.02 0.03 0.04 0.08 0.11 0.11 0.14 0.11 0.09 0.12 0.13 0.10 0.10 0.13 0.17 0.16 0.12 0.13 0.11 0.07 0.06 0.06
0.00 0.00 0.00 0.00 0.00 0.00 0.00 0.00 0.00 0.00 0.00 0.00 0.00 0.00 0.00 0.00 0.00 0.01 0.01 0.01 0.02 0.02 0.02 0.04 0.05 0.07 0.10 0.13 0.15 0.16 0.13 0.15 0.14 0.11 0.10 0.12 0.13 0.14 0.10 0.12 0.11 0.07 0.05 0.05
0.00 0.00 0.00 0.00 0.00 0.00 0.00 0.00 0.00 0.00 0.00 0.00 0.00 0.00 0.00 0.00 0.01 0.02 0.02 0.02 0.02 0.03 0.03 0.04 0.05 0.07 0.12 0.20 0.25 0.23 0.20 0.20 0.17 0.14 0.15 0.16 0.15 0.16 0.13 0.09 0.07 0.05 0.05 0.05
0.00 0.00 0.00 0.00 0.00 0.00 0.00 0.00 0.00 0.00 0.00 0.00 0.00 0.00 0.00 0.00 0.01 0.01 0.02 0.02 0.04 0.04 0.03 0.03 0.05 0.09 0.22 0.31 0.25 0.19 0.19 0.20 0.20 0.19 0.14 0.13 0.10 0.09 0.08 0.07 0.06 0.07 0.05 0.04
0.00 0.00 0.00 0.00 0.00 0.00 0.00 0.00 0.00 0.00 0.00 0.00 0.00 0.00 0.00 0.00 0.01 0.01 0.02 0.02 0.03 0.03 0.03 0.03 0.06 0.16 0.22 0.23 0.16 0.15 0.16 0.16 0.17 0.16 0.15 0.13 0.10 0.09 0.10 0.10 0.07 0.07 0.07 0.06
0.00 0.00 0.00 0.00 0.00 0.00 0.00 0.00 0.00 0.00 0.00 0.00 0.00 0.00 0.00 0.00 0.00 0.01 0.01 0.01 0.02 0.03 0.03 0.04 0.08 0.13 0.11 0.12 0.11 0.12 0.14 0.13 0.11 0.13 0.14 0.11 0.09 0.10 0.11 0.09 0.07 0.06 0.08 0.09
0.00 0.00 0.00 0.00 0.00 0.00 0.00 0.00 0.00 0.00 0.00 0.00 0.00 0.00 0.00 0.00 0.00 0.00 0.00 0.01 0.02 0.02 0.03 0.05 0.06 0.07 0.09 0.11 0.11 0.11 0.11 0.11 0.10 0.11 0.15 0.14 0.14 0.13 0.11 0.09 0.08 0.08 0.07 0.06
0.00 0.00 0.00 0.00 0.00 0.00 0.00 0.00 0.00 0.00 0.00 0.00 0.00 0.00 0.00 0.00 0.00 0.00 0.00 0.01 0.02 0.02 0.03 0.04 0.06 0.07 0.09 0.13 0.15 0.11 0.09 0.08 0.09 0.09 0.12 0.14 0.15 0.16 0.14 0.11 0.10 0.08 0.07 0.06
0.00 0.00 0.00 0.00 0.00 0.00 0.00 0.00 0.00 0.00 0.00 0.00 0.00 0.00 0.00 0.00 0.00 0.00 0.01 0.01 0.02 0.02 0.05 0.07 0.06 0.08 0.10 0.10 0.15 0.11 0.07 0.08 0.09 0.11 0.12 0.14 0.15 0.17 0.17 0.14 0.12 0.09 0.08 0.08
0.00 0.00 0.00 0.00 0.00 0.00 0.00 0.00 0.00 0.00 0.00 0.00 0.00 0.00 0.00 0.00 0.00 0.00 0.01 0.01 0.02 0.02 0.03 0.05 0.10 0.08 0.09 0.07 0.06 0.05 0.05 0.06 0.07 0.09 0.09 0.08 0.12 0.16 0.17 0.15 0.11 0.09 0.10 0.10
0.00 0.00 0.00 0.00 0.00 0.00 0.00 0.00 0.00 0.00 0.00 0.00 0.00 0.00 0.00 0.00 0.00 0.01 0.01 0.01 0.02 0.02 0.01 0.02 0.05 0.05 0.06 0.05 0.04 0.04 0.04 0.04 0.04 0.06 0.09 0.06 0.06 0.09 0.08 0.09 0.12 0.12 0.11 0.09
0.00 0.00 0.00 0.00 0.00 0.00 0.00 0.00 0.00 0.00 0.00 0.00 0.00 0.00 0.00 0.00 0.00 0.01 0.01 0.02 0.03 0.03 0.03 0.03 0.03 0.05 0.06 0.05 0.04 0.04 0.03 0.03 0.03 0.04 0.10 0.10 0.05 0.06 0.06 0.08 0.11 0.13 0.13 0.11
0.00 0.00 0.00 0.00 0.00 0.00 0.00 0.00 0.00 0.00 0.00 0.00 0.00 0.00 0.00 0.00 0.00 0.00 0.01 0.03 0.07 0.04 0.03 0.03 0.04 0.05 0.05 0.04 0.04 0.04 0.03 0.02 0.02 0.02 0.09 0.10 0.05 0.04 0.05 0.07 0.09 0.10 0.11 0.12
0.00 0.00 0.00 0.00 0.00 0.00 0.00 0.00 0.00 0.00 0.00 0.00 0.00 0.00 0.00 0.00 0.00 0.00 0.01 0.02 0.03 0.03 0.02 0.03 0.04 0.06 0.04 0.03 0.03 0.03 0.03 0.02 0.01 0.03 0.09 0.10 0.05 0.03 0.04 0.05 0.07 0.08 0.09 0.09
0.00 0.00 0.00 0.00 0.00 0.00 0.00 0.00 0.00 0.00 0.00 0.00 0.00 0.00 0.00 0.00 0.00 0.01 0.01 0.01 0.01 0.02 0.02 0.02 0.03 0.05 0.06 0.03 0.02 0.02 0.02 0.02 0.02 0.02 0.04 0.05 0.05 0.03 0.03 0.04 0.06 0.06 0.07 0.06
0.00 0.00 0.00 0.00 0.00 0.00 0.00 0.00 0.00 0.00 0.00 0.00 0.00 0.00 0.00 0.00 0.00 0.02 0.02 0.01 0.01 0.01 0.01 0.01 0.02 0.02 0.03 0.02 0.02 0.02 0.02 0.02 0.02 0.02 0.02 0.02 0.02 0.02 0.03 0.04 0.05 0.06 0.06 0.07
0.00 0.00 0.00 0.00 0.00 0.00 0.00 0.00 0.00 0.00 0.00 0.00 0.00 0.00 0.00 0.00 0.00 0.01 0.01 0.01 0.00 0.01 0.01 0.01 0.01 0.01 0.01 0.01 0.01 0.02 0.02 0.02 0.02 0.02 0.01 0.01 0.01 0.01 0.03 0.03 0.03 0.05 0.05 0.05
0.00 0.00 0.00 0.00 0.00 0.00 0.00 0.00 0.00 0.00 0.00 0.00 0.00 0.00 0.00 0.00 0.01 0.01 0.01 0.01 0.01 0.01 0.01 0.01 0.01 0.01 0.01 0.01 0.01 0.01 0.01 0.01 0.01 0.01 0.01 0.00 0.01 0.01 0.01 0.02 0.02 0.02 0.02 0.02
0.00 0.00 0.00 0.00 0.00 0.00 0.00 0.00 0.00 0.00 0.00 0.00 0.00 0.00 0.00 0.01 0.01 0.01 0.01 0.01 0.01 0.01 0.01 0.01 0.01 0.02 0.01 0.01 0.01 0.01 0.01 0.01 0.01 0.01 0.01 0.01 0.00 0.00 0.00 0.01 0.01 0.02 0.02 0.02
0.00 0.00 0.00 0.00 0.00 0.00 0.00 0.00 0.00 0.00 0.00 0.00 0.00 0.01 0.01 0.02 0.01 0.01 0.01 0.01 0.01 0.01 0.01 0.02 0.01 0.01 0.01 0.01 0.01 0.01 0.01 0.02 0.01 0.01 0.01 0.01 0.01 0.01 0.01 0.01 0.01 0.02 0.02 0.02
0.00 0.00 0.00 0.00 0.00 0.00 0.00 0.00 0.00 0.00 0.00 0.01 0.01 0.02 0.02 0.01 0.01 0.01 0.02 0.02 0.02 0.02 0.02 0.02 0.02 0.02 0.01 0.01 0.01 0.01 0.01 0.01 0.02 0.02 0.01 0.01 0.01 0.01 0.02 0.02 0.03 0.03 0.03 0.03
0.00 0.00 0.00 0.00 0.00 0.00 0.00 0.00 0.00 0.00 0.01 0.02 0.02 0.02 0.02 0.01 0.01 0.01 0.02 0.03 0.03 0.04 0.04 0.03 0.03 0.03 0.03 0.02 0.01 0.01 0.01 0.01 0.01 0.01 0.02 0.02 0.01 0.02 0.02 0.02 0.02 0.03 0.04 0.04
0.00 0.00 0.00 0.00 0.00 0.00 0.00 0.00 0.00 0.01 0.01 0.02 0.02 0.02 0.02 0.02 0.02 0.02 0.03 0.05 0.05 0.06 0.06 0.05 0.05 0.05 0.04 0.03 0.02 0.01 0.01 0.02 0.02 0.03 0.02 0.03 0.03 0.03 0.03 0.03 0.02 0.02 0.03 0.03
0.00 0.00 0.01 0.01 0.01 0.01 0.01 0.02 0.02 0.02 0.01 0.02 0.02 0.02 0.03 0.03 0.04 0.04 0.04 0.06 0.07 0.07 0.08 0.07 0.06 0.05 0.04 0.03 0.02 0.02 0.01 0.02 0.02 0.02 0.02 0.03 0.03 0.03 0.03 0.04 0.03 0.02 0.02 0.02
0.00 0.01 0.01 0.02 0.02 0.02 0.02 0.03 0.03 0.03 0.03 0.03 0.03 0.04 0.05 0.05 0.06 0.05 0.05 0.06 0.07 0.07 0.06 0.05 0.04 0.03 0.02 0.02 0.02 0.02 0.02 0.03 0.04 0.04 0.03 0.03 0.03 0.03 0.03 0.04 0.04 0.03 0.02 0.03
0.00 0.01 0.03 0.03 0.03 0.03 0.04 0.04 0.04 0.05 0.05 0.05 0.05 0.05 0.07 0.07 0.07 0.06 0.05 0.06 0.06 0.05 0.04 0.03 0.02 0.02 0.03 0.03 0.02 0.03 0.03 0.03 0.04 0.04 0.05 0.04 0.04 0.03 0.03 0.03 0.03 0.04 0.04 0.04
MSLP
1012.64 1013.44 1014.03 1014.40 1014.58 1014.58 1014.46 1014.25 1013.98 1013.66 1013.30 1012.89 1012.44 1011.97 1011.51 1011.09 1010.77 1010.57 1010.53 1010.64 1010.89 1011.23 1011.63 1012.03 1012.41 1012.76 1013.07 1013.37 1013.69 1014.06 1014.48 1014.95 1015.46 1015.97 1016.44 1016.85 1017.17 1017.40 1017.55 1017.65 1017.74 1017.84 1018.00 1018.22
1013.13 1013.76 1014.18 1014.41 1014.49 1014.48 1014.41 1014.33 1014.23 1014.09 1013.88 1013.56 1013.14 1012.61 1012.01 1011.42 1010.91 1010.53 1010.35 1010.36 1010.57 1010.91 1011.33 1011.78 1012.19 1012.55 1012.87 1013.16 1013.46 1013.80 1014.23 1014.72 1015.26 1015.83 1016.35 1016.80 1017.14 1017.36 1017.48 1017.52 1017.55 1017.59 1017.70 1017.89
1013.37 1013.82 1014.07 1014.16 1014.18 1014.19 1014.23 1014.32 1014.43 1014.50 1014.46 1014.26 1013.85 1013.26 1012.53 1011.75 1011.03 1010.46 1010.12 1010.04 1010.20 1010.54 1011.01 1011.51 1011.98 1012.38 1012.71 1013.00 1013.28 1013.60 1014.01 1014.50 1015.06 1015.65 1016.21 1016.69 1017.05 1017.27 1017.36 1017.36 1017.33 1017.32 1017.38 1017.53
1013.35 1013.61 1013.71 1013.70 1013.71 1013.78 1013.98 1014.29 1014.65 1014.95 1015.10 1015.01 1014.62 1013.96 1013.08 1012.11 1011.17 1010.40 1009.90 1009.70 1009.82 1010.18 1010.69 1011.27 1011.81 1012.26 1012.63 1012.91 1013.17 1013.46 1013.83 1014.30 1014.85 1015.43 1016.01 1016.50 1016.87 1017.09 1017.17 1017.15 1017.08 1017.02 1017.04 1017.15
1013.12 1013.22 1013.19 1013.13 1013.17 1013.37 1013.77 1014.33 1014.95 1015.49 1015.83 1015.84 1015.47 1014.72 1013.69 1012.51 1011.35 1010.37 1009.71 1009.40 1009.47 1009.84 1010.41 1011.07 1011.69 1012.21 1012.61 1012.90 1013.14 1013.38 1013.69 1014.10 1014.60 1015.16 1015.71 1016.21 1016.58 1016.81 1016.90 1016.87 1016.79 1016.71 1016.70 1016.78
1012.76 1012.72 1012.61 1012.55 1012.66 1013.03 1013.64 1014.46 1015.34 1016.12 1016.62 1016.72 1016.35 1015.52 1014.33 1012.95 1011.58 1010.41 1009.58 1009.17 1009.19 1009.57 1010.19 1010.92 1011.62 1012.21 1012.65 1012.95 1013.15 1013.34 1013.57 1013.90 1014.32 1014.82 1015.34 1015.82 1016.20 1016.44 1016.55 1016.54 1016.47 1016.39 1016.36 1016.42
1012.36 1012.22 1012.07 1012.04 1012.27 1012.80 1013.64 1014.70 1015.81 1016.78 1017.42 1017.58 1017.19 1016.28 1014.95 1013.39 1011.83 1010.49 1009.51 1009.01 1008.99 1009.37 1010.04 1010.83 1011.60 1012.25 1012.72 1013.01 1013.19 1013.31 1013.45 1013.68 1014.01 1014.43 1014.90 1015.35 1015.74 1016.01 1016.15 1016.18 1016.13 1016.07 1016.03 1016.07
1012.02 1011.81 1011.65 1011.67 1012.01 1012.70 1013.73 1014.97 1016.26 1017.37 1018.10 1018.29 1017.87 1016.89 1015.45 1013.76 1012.06 1010.58 1009.51 1008.93 1008.87 1009.25 1009.94 1010.78 1011.60 1012.29 1012.78 1013.07 1013.21 1013.27 1013.33 1013.46 1013.69 1014.04 1014.45 1014.87 1015.26 1015.55 1015.73 1015.80 1015.80 1015.75 1015.71 1015.72
1011.80 1011.54 1011.39 1011.47 1011.89 1012.70 1013.84 1015.21 1016.59 1017.76 1018.52 1018.72 1018.28 1017.24 1015.74 1013.97 1012.20 1010.66 1009.53 1008.91 1008.82 1009.19 1009.90 1010.75 1011.60 1012.31 1012.81 1013.10 1013.20 1013.21 1013.20 1013.25 1013.41 1013.68 1014.04 1014.44 1014.83 1015.14 1015.36 1015.47 1015.49 1015.45 1015.39 1015.36
1011.74 1011.45 1011.29 1011.40 1011.87 1012.73 1013.91 1015.30 1016.68 1017.84 1018.58 1018.75 1018.29 1017.24 1015.73 1013.98 1012.22 1010.68 1009.55 1008.94 1008.84 1009.21 1009.90 1010.75 1011.59 1012.30 1012.80 1013.08 1013.18 1013.15 1013.11 1013.11 1013.22 1013.44 1013.77 1014.15 1014.53 1014.85 1015.08 1015.21 1015.23 1015.17 1015.08 1014.98
1011.83 1011.52 1011.36 1011.46 1011.92 1012.74 1013.87 1015.18 1016.47 1017.53 1018.19 1018.32 1017.85 1016.83 1015.39 1013.73 1012.07 1010.63 1009.58 1009.01 1008.93 1009.28 1009.95 1010.77 1011.58 1012.27 1012.77 1013.05 1013.15 1013.13 1013.09 1013.08 1013.18 1013.38 1013.69 1014.05 1014.42 1014.74 1014.96 1015.07 1015.06 1014.95 1014.77 1014.58
1012.05 1011.72 1011.54 1011.61 1012.00 1012.71 1013.69 1014.82 1015.94 1016.84 1017.38 1017.44 1016.99 1016.05 1014.75 1013.25 1011.78 1010.51 1009.59 1009.11 1009.08 1009.43 1010.06 1010.83 1011.59 1012.25 1012.73 1013.02 1013.15 1013.18 1013.18 1013.21 1013.33 1013.54 1013.84 1014.19 1014.54 1014.82 1015.00 1015.06 1014.97 1014.78 1014.50 1014.17
1012.35 1012.01 1011.80 1011.81 1012.08 1012.62 1013.39 1014.28 1015.14 1015.84 1016.23 1016.22 1015.79 1014.96 1013.85 1012.60 1011.38 1010.34 1009.61 1009.26 1009.29 1009.64 1010.23 1010.93 1011.64 1012.25 1012.72 1013.04 1013.22 1013.32 1013.39 1013.50 1013.67 1013.92 1014.23 1014.56 1014.87 1015.10 1015.20 1015.17 1014.99 1014.68 1014.27 1013.79
1012.71 1012.37 1012.13 1012.05 1012.17 1012.50 1013.01 1013.61 1014.19 1014.64 1014.85 1014.77 1014.38 1013.69 1012.81 1011.83 1010.90 1010.14 1009.64 1009.43 1009.53 1009.89 1010.44 1011.08 1011.72 1012.29 1012.75 1013.10 1013.35 1013.55 1013.72 1013.92 1014.17 1014.47 1014.79 1015.10 1015.36 1015.51 1015.53 1015.39 1015.10 1014.66 1014.12 1013.51
1013.10 1012.77 1012.49 1012.32 1012.29 1012.40 1012.62 1012.91 1013.18 1013.37 1013.41 1013.25 1012.89 1012.35 1011.70 1011.01 1010.39 1009.91 1009.64 1009.60 1009.78 1010.16 1010.67 1011.24 1011.82 1012.35 1012.81 1013.20 1013.53 1013.83 1014.12 1014.43 1014.76 1015.11 1015.44 1015.73 1015.93 1016.01 1015.93 1015.69 1015.28 1014.74 1014.08 1013.37
1013.50 1013.18 1012.88 1012.63 1012.45 1012.33 1012.28 1012.26 1012.23 1012.16 1012.02 1011.77 1011.44 1011.03 1010.59 1010.18 1009.85 1009.65 1009.60 1009.71 1009.98 1010.37 1010.85 1011.37 1011.89 1012.39 1012.86 1013.30 1013.71 1014.12 1014.53 1014.94 1015.36 1015.75 1016.09 1016.35 1016.50 1016.50 1016.34 1016.01 1015.53 1014.91 1014.20 1013.42
1013.90 1013.61 1013.29 1012.97 1012.64 1012.33 1012.02 1011.72 1011.41 1011.09 1010.77 1010.43 1010.10 1009.80 1009.54 1009.36 1009.28 1009.31 1009.45 1009.71 1010.05 1010.46 1010.92 1011.40 1011.89 1012.38 1012.86 1013.35 1013.85 1014.36 1014.87 1015.38 1015.86 1016.30 1016.65 1016.89 1017.00 1016.94 1016.73 1016.35 1015.83 1015.20 1014.48 1013.71
1014.31 1014.03 1013.70 1013.31 1012.86 1012.37 1011.84 1011.29 1010.74 1010.20 1009.71 1009.27 1008.93 1008.69 1008.56 1008.55 1008.66 1008.87 1009.17 1009.54 1009.95 1010.39 1010.84 1011.30 1011.77 1012.26 1012.78 1013.32 1013.89 1014.49 1015.09 1015.68 1016.23 1016.70 1017.06 1017.29 1017.37 1017.30 1017.07 1016.69 1016.20 1015.60 1014.94 1014.24
1014.71 1014.43 1014.07 1013.62 1013.07 1012.43 1011.72 1010.96 1010.20 1009.48 1008.84 1008.31 1007.92 1007.70 1007.65 1007.76 1007.99 1008.33 1008.74 1009.19 1009.66 1010.12 1010.59 1011.05 1011.53 1012.04 1012.59 1013.18 1013.83 1014.50 1015.18 1015.84 1016.43 1016.93 1017.31 1017.54 1017.63 1017.57 1017.37 1017.05 1016.63 1016.13 1015.58 1015.01
1015.11 1014.79 1014.38 1013.86 1013.22 1012.46 1011.61 1010.70 1009.77 1008.90 1008.13 1007.51 1007.08 1006.85 1006.83 1006.99 1007.30 1007.71 1008.19 1008.70 1009.21 1009.70 1010.19 1010.67 1011.18 1011.72 1012.31 1012.97 1013.67 1014.41 1015.15 1015.86 1016.49 1017.02 1017.42 1017.69 1017.81 1017.79 1017.66 1017.43 1017.13 1016.78 1016.38 1015.97
1015.46 1015.08 1014.60 1014.01 1013.28 1012.43 1011.47 1010.45 1009.42 1008.44 1007.58 1006.89 1006.40 1006.15 1006.12 1006.29 1006.63 1007.07 1007.59 1008.13 1008.67 1009.19 1009.71 1010.23 1010.77 1011.36 1012.01 1012.72 1013.48 1014.27 1015.05 1015.79 1016.46 1017.02 1017.46 1017.77 1017.95 1018.01 1017.98 1017.88 1017.72 1017.52 1017.30 1017.06
1015.73 1015.27 1014.71 1014.03 1013.23 1012.31 1011.29 1010.20 1009.11 1008.07 1007.16 1006.43 1005.91 1005.62 1005.57 1005.73 1006.06 1006.50 1007.02 1007.58 1008.14 1008.69 1009.25 1009.81 1010.40 1011.04 1011.74 1012.49 1013.29 1014.12 1014.93 1015.70 1016.40 1017.00 1017.48 1017.84 1018.09 1018.25 1018.34 1018.37 1018.37 1018.34 1018.28 1018.21
1015.91 1015.33 1014.68 1013.93 1013.07 1012.11 1011.05 1009.95 1008.85 1007.81 1006.89 1006.15 1005.61 1005.31 1005.23 1005.36 1005.67 1006.10 1006.61 1007.16 1007.73 1008.31 1008.90 1009.50 1010.13 1010.82 1011.55 1012.34 1013.17 1014.02 1014.85 1015.64 1016.36 1016.99 1017.51 1017.94 1018.28 1018.54 1018.75 1018.91 1019.05 1019.17 1019.26 1019.32
1015.94 1015.27 1014.53 1013.72 1012.82 1011.84 1010.79 1009.71 1008.65 1007.65 1006.78 1006.06 1005.54 1005.24 1005.15 1005.26 1005.53 1005.93 1006.42 1006.96 1007.53 1008.12 1008.73 1009.37 1010.03 1010.75 1011.51 1012.31 1013.15 1014.00 1014.84 1015.63 1016.36 1017.01 1017.58 1018.07 1018.49 1018.85 1019.17 1019.45 1019.71 1019.95 1020.16 1020.33
1015.82 1015.06 1014.26 1013.40 1012.49 1011.53 1010.53 1009.52 1008.54 1007.62 1006.82 1006.17 1005.70 1005.42 1005.33 1005.43 1005.68 1006.05 1006.51 1007.04 1007.60 1008.19 1008.81 1009.45 1010.13 1010.85 1011.62 1012.42 1013.24 1014.08 1014.90 1015.68 1016.41 1017.08 1017.68 1018.22 1018.71 1019.15 1019.56 1019.94 1020.30 1020.63 1020.92 1021.16
1015.53 1014.73 1013.89 1013.02 1012.13 1011.21 1010.29 1009.38 1008.50 1007.70 1007.01 1006.45 1006.05 1005.82 1005.76 1005.86 1006.11 1006.45 1006.89 1007.39 1007.93 1008.51 1009.12 1009.76 1010.43 1011.13 1011.88 1012.65 1013.43 1014.23 1015.01 1015.77 1016.48 1017.15 1017.77 1018.35 1018.89 1019.40 1019.88 1020.33 1020.76 1021.15 1021.50 1021.79
Thickness
5791 5776 5767 5771 5775 5778 5775 5770 5765 5776 5796 5793 5789 5791 5800 5807 5806 5802 5800 5798 5796 5795 5795 5792 5787 5781 5775 5769 5764 5761 5757 5754 5750 5745 5741 5738 5735 5735 5734 5733 5732 5731 5729 5728
5771 5767 5778 5783 5781 5778 5774 5767 5766 5778 5794 5791 5786 5787 5797 5802 5803 5804 5801 5799 5797 5793 5790 5788 5784 5779 5773 5769 5764 5760 5757 5754 5751 5748 5744 5741 5738 5735 5735 5733 5732 5731 5729 5728
5765 5774 5786 5780 5776 5772 5770 5766 5768 5772 5781 5785 5783 5776 5785 5796 5801 5803 5803 5801 5799 5794 5790 5788 5784 5780 5774 5768 5764 5762 5757 5754 5751 5748 5744 5740 5736 5734 5732 5731 5731 5731 5730 5729
5767 5778 5781 5777 5773 5772 5761 5777 5776 5774 5764 5755 5768 5747 5771 5781 5787 5794 5797 5798 5797 5795 5791 5787 5783 5778 5775 5772 5767 5763 5758 5754 5751 5747 5744 5740 5737 5733 5734 5733 5732 5731 5730 5730
5764 5776 5775 5772 5777 5777 5773 5783 5778 5773 5763 5751 5755 5747 5757 5774 5778 5787 5794 5797 5796 5794 5791 5786 5783 5780 5776 5772 5767 5763 5759 5754 5751 5748 5745 5741 5738 5736 5735 5734 5732 5731 5730 5730
5770 5782 5784 5782 5788 5787 5785 5773 5763 5749 5742 5733 5749 5744 5748 5765 5778 5786 5792 5795 5795 5793 5790 5786 5783 5779 5774 5770 5767 5763 5758 5754 5751 5748 5745 5741 5738 5735 5733 5732 5730 5729 5729 5729
5760 5772 5784 5789 5779 5781 5774 5748 5724 5725 5715 5722 5743 5741 5748 5777 5786 5788 5790 5791 5792 5790 5787 5784 5780 5775 5771 5768 5765 5762 5757 5753 5751 5748 5745 5742 5739 5736 5734 5732 5731 5729 5728 5728
5739 5742 5771 5782 5777 5766 5761 5750 5722 5713 5710 5719 5737 5737 5760 5785 5790 5793 5794 5793 5790 5787 5784 5782 5779 5774 5770 5767 5764 5760 5756 5752 5750 5747 5744 5742 5739 5736 5734 5733 5732 5731 5730 5730
5732 5739 5772 5783 5786 5774 5753 5747 5748 5722 5718 5716 5725 5742 5766 5785 5786 5788 5789 5788 5785 5784 5781 5779 5776 5772 5769 5765 5762 5759 5754 5752 5749 5747 5744 5741 5738 5736 5734 5733 5732 5731 5730 5729
5745 5739 5761 5776 5780 5774 5767 5749 5729 5717 5704 5705 5722 5732 5744 5769 5775 5780 5783 5783 5782 5781 5778 5776 5773 5770 5767 5764 5761 5758 5754 5751 5748 5746 5743 5740 5738 5736 5734 5733 5731 5730 5729 5728
5748 5738 5747 5758 5760 5755 5751 5745 5731 5716 5716 5703 5705 5727 5766 5772 5779 5778 5781 5782 5780 5778 5776 5773 5771 5768 5765 5762 5759 5755 5752 5749 5746 5744 5741 5739 5737 5736 5734 5732 5731 5730 5728 5727
5743 5730 5723 5740 5762 5769 5762 5749 5735 5724 5717 5710 5710 5730 5779 5779 5781 5781 5780 5780 5778 5777 5775 5771 5769 5765 5762 5759 5756 5754 5750 5747 5745 5742 5740 5737 5736 5735 5733 5732 5730 5729 5727 5726
5738 5723 5713 5722 5738 5753 5755 5750 5744 5732 5715 5703 5708 5735 5775 5777 5779 5780 5780 5778 5776 5775 5772 5769 5766 5763 5760 5757 5754 5752 5749 5746 5743 5741 5738 5736 5734 5733 5731 5730 5729 5728 5726 5724
5744 5722 5719 5717 5726 5743 5748 5748 5741 5733 5715 5709 5720 5742 5763 5769 5773 5775 5777 5776 5774 5772 5770 5766 5762 5760 5758 5756 5752 5749 5747 5745 5742 5740 5737 5734 5732 5731 5730 5728 5727 5726 5724 5722
5736 5721 5727 5735 5745 5749 5753 5751 5743 5742 5736 5730 5738 5743 5762 5772 5775 5777 5776 5773 5770 5768 5766 5763 5760 5757 5756 5753 5749 5746 5744 5743 5741 5737 5733 5731 5729 5729 5727 5725 5724 5722 5720 5718
5720 5720 5724 5732 5741 5745 5747 5751 5747 5748 5747 5745 5750 5752 5771 5775 5775 5774 5773 5771 5768 5766 5764 5762 5759 5755 5753 5750 5746 5743 5741 5740 5737 5733 5730 5728 5726 5725 5723 5721 5720 5718 5716 5714
5705 5710 5708 5711 5729 5734 5727 5745 5747 5750 5754 5752 5749 5762 5770 5769 5771 5773 5772 5771 5769 5766 5763 5760 5757 5753 5750 5748 5745 5741 5738 5735 5732 5729 5726 5723 5722 5719 5717 5716 5714 5712 5710 5709
5699 5697 5692 5697 5712 5703 5729 5754 5756 5754 5756 5759 5764 5768 5769 5772 5773 5774 5775 5772 5768 5765 5762 5758 5755 5751 5748 5745 5742 5738 5734 5731 5727 5724 5721 5719 5717 5714 5712 5710 5708 5706 5704 5702
5696 5693 5684 5682 5690 5705 5730 5746 5748 5746 5749 5760 5761 5764 5765 5767 5766 5765 5770 5772 5769 5766 5762 5758 5754 5750 5745 5741 5738 5733 5729 5726 5722 5719 5716 5714 5712 5709 5707 5704 5702 5700 5698 5695
5686 5689 5681 5677 5686 5688 5718 5742 5750 5747 5738 5758 5759 5758 5759 5761 5750 5757 5766 5766 5763 5760 5756 5753 5749 5745 5740 5736 5733 5728 5723 5720 5716 5714 5711 5709 5706 5703 5701 5698 5695 5693 5690 5687
5670 5671 5672 5673 5680 5692 5718 5732 5741 5722 5731 5753 5755 5756 5756 5756 5759 5762 5762 5760 5757 5754 5750 5746 5743 5738 5735 5731 5727 5722 5718 5714 5712 5709 5706 5702 5699 5697 5693 5690 5688 5685 5682 5679
5657 5659 5660 5662 5670 5683 5715 5722 5722 5725 5740 5746 5750 5752 5751 5751 5753 5755 5754 5751 5749 5746 5741 5738 5734 5730 5727 5724 5720 5716 5712 5709 5706 5703 5699 5695 5692 5689 5686 5683 5680 5677 5674 5671
5648 5654 5656 5663 5673 5692 5704 5710 5720 5725 5731 5738 5742 5745 5745 5743 5743 5744 5742 5741 5739 5736 5733 5730 5726 5721 5717 5715 5713 5709 5705 5702 5699 5695 5692 5688 5684 5681 5678 5675 5672 5669 5666 5663
5643 5650 5652 5660 5675 5687 5697 5705 5713 5721 5726 5732 5736 5737 5739 5736 5735 5733 5731 5728 5726 5725 5724 5721 5717 5712 5708 5705 5703 5701 5698 5695 5692 5688 5683 5680 5676 5672 5669 5666 5663 5660 5657 5654
5634 5641 5644 5652 5665 5677 5689 5696 5703 5711 5718 5723 5726 5727 5728 5727 5724 5723 5720 5717 5715 5714 5712 5711 5707 5703 5699 5696 5694 5691 5689 5686 5683 5679 5675 5671 5667 5663 5658 5654 5651 5649 5647 5645
5624 5631 5636 5643 5657 5662 5673 5684 5693 5699 5704 5709 5712 5712 5714 5715 5713 5711 5709 5707 5704 5701 5700 5698 5695 5692 5689 5686 5683 5680 5678 5677 5674 5669 5665 5661 5657 5654 5649 5645 5639 5635 5634 5633